Location: Bucquoy
(50.1391°N, 2.7097°E)
Time: 23:40:20
(UTC+00:00)

Gbstr 26 Del rocket - Pass Details

Date: 06 May 2021
Orbit: 493 x 1263 km, 51.8° (Epoch: 21 June)

Event Time Altitude Azimuth Distance (km) Brightness Sun altitude
Rises 00:26:04 0° 288° (WNW) 3,947 7.3 -22.7°
Reaches altitude 10° 00:29:02 10° 288° (WNW) 2,882 6.5 -22.6°
Maximum altitude 00:35:53 76° 204° (SSW) 937 3.7 -22.4°
Drops below altitude 10° 00:41:21 10° 120° (ESE) 2,323 5.8 -22.2°
Sets 00:43:32 0° 118° (ESE) 3,138 6.5 -22.1°
